Find OneWeb SL0403

NORAD ID: 50483 Int'l Des: 2021-132 Owner: ONEWEBN Country: UK Constellation: oneweb operational
LEOCIRCULARPOLARONEWEB_TYPE

リアルタイム位置

3D地球を読み込み中...

OneWeb SL0403について

説明を読み込み中...

次回通過

Passes for default location (London). Set your location on the main map for personalized predictions.

高度履歴

Loading altitude history...

軌道要素

1 50483U 21132Q 26126.15863870 .00000131 00000-0 29856-3 0 9992
2 50483 87.9189 343.8159 0001790 90.3337 269.8001 13.18684237216052
Epoch: May 6, 2026 • Age: 21 hours

現在のステータス

高度 1213.1 km
速度 7.25 km/s
衛星直下点 -57.03°S, 73.6°W
打ち上げ日 Dec 27, 2021
運用期間 4.3 years
タイプ internet

技術仕様

分類 Payload
質量 148.00 kg
乾燥質量 140.00 kg
総質量 148.00 kg
長さ 1.30 m
直径 1.00 m
スパン 5.00 m
形状 Trapezoid+2 pan
製造者 ONEWUS
バスタイプ ARROW
フェーズステータス In Orbit
所有者/国 ONEWEBN/UK

Most Searched